Simultaneous Nadir Overpasses (SNOs) Predictions

Prediction of SNOs between METOP-B and TERRA Satellite Orbit:

Table of predicted SNOs for the next 14.0 days since TLE Epoch: 11/13/2021
Index Date (METOP-B) Time (METOP-B) Lat,Lon (METOP-B) SZA (METOP-B ) Date (TERRA) Time (TERRA) Lat,Lon (TERRA) SZA (TERRA ) Distance(km) Time Diff (sec)
1 11/15/2021 10:35:22 81.25, 65.09 102.57 11/15/2021 10:36:33 81.25, 65.10 102.61 0.60 71
2 11/15/2021 11:26:02 -81.26,-127.17 77.37 11/15/2021 11:26:00 -81.25,-127.35 77.40 3.31 2
3 11/18/2021 06:09:44 81.25, 131.60 103.25 11/18/2021 06:10:45 81.25, 131.45 103.26 2.57 61
4 11/18/2021 07:00:24 -81.26, -60.66 76.69 11/18/2021 07:00:11 -81.26, -60.61 76.69 1.01 13
5 11/21/2021 01:44:07 81.24,-162.29 103.84 11/21/2021 01:44:57 81.24,-162.25 103.86 0.93 50
6 11/21/2021 02:34:46 -81.26, 5.84 76.06 11/21/2021 02:34:23 -81.26, 5.72 76.09 2.04 23
7 11/23/2021 21:18:28 81.25, -95.43 104.46 11/23/2021 21:19:08 81.25, -95.61 104.46 3.00 40
8 11/23/2021 22:09:08 -81.25, 71.92 75.53 11/23/2021 22:08:34 -81.25, 72.00 75.54 1.44 34
9 11/26/2021 16:52:49 81.25, -28.98 104.99 11/26/2021 16:53:18 81.26, -29.02 105.00 0.91 29



Historial Predications of SNOs between METOP-B and TERRA
